When you browse on this site, cookies collect data to enhance your experience and personalize the content and advertising you see.
Visit our Privacy Policy to learn more. By continuing to use the site, you agree to this use of cookies and data.
  • In Österreich
  • Länderverzeichnis
  • Für 7 Tage
  • Wassertemperatur
  • Satellitenkarten
  • Wetterkarte
  • News
  • Widgets
  • user-avatar
    Anmelden

    Stündliche Wetter Barra

    Heute, 19 Januar, Samstag

    Zeit Temperatur Niederschläge Wind Luftdruck Luftfeuchtigkeit
    00:00 +26°C° 0.5 mm 2 m/S 747 mmHg 95%
    01:00 +26°C° 0.5 mm 2 m/S 747 mmHg 95%
    02:00 +26°C° 1 mm 2 m/S 747 mmHg 95%
    03:00 +26°C° 1 mm 2 m/S 747 mmHg 95%
    04:00 +26°C° 0 mm 3 m/S 747 mmHg 96%
    05:00 +26°C° 0.7 mm 3 m/S 747 mmHg 95%
    06:00 +26°C° 0.7 mm 3 m/S 747 mmHg 94%
    07:00 +26°C° 0.7 mm 3 m/S 748 mmHg 94%
    08:00 +27°C° 0.3 mm 3 m/S 748 mmHg 90%
    09:00 +28°C° 0.3 mm 4 m/S 748 mmHg 86%
    10:00 +28°C° 0.3 mm 4 m/S 748 mmHg 83%
    11:00 +29°C° 0.1 mm 4 m/S 748 mmHg 76%
    12:00 +30°C° 0.1 mm 4 m/S 748 mmHg 70%
    13:00 +32°C° 0.1 mm 4 m/S 748 mmHg 64%
    14:00 +32°C° 0.1 mm 4 m/S 747 mmHg 65%
    15:00 +30°C° 0.1 mm 4 m/S 747 mmHg 66%
    16:00 +30°C° 0.1 mm 4 m/S 746 mmHg 67%
    17:00 +29°C° 0.1 mm 4 m/S 747 mmHg 72%
    18:00 +28°C° 0.1 mm 3 m/S 747 mmHg 77%
    19:00 +27°C° 0.1 mm 3 m/S 747 mmHg 82%
    20:00 +26°C° 0.1 mm 3 m/S 747 mmHg 84%
    21:00 +26°C° 0.1 mm 3 m/S 748 mmHg 87%
    22:00 +25°C° 0.1 mm 3 m/S 748 mmHg 90%
    23:00 +25°C° 0.1 mm 3 m/S 748 mmHg 91%

    Morgen, 20 Januar, Sonntag

    Zeit Temperatur Niederschläge Wind Luftdruck Luftfeuchtigkeit
    00:00 +25°C° 0.1 mm 3 m/S 748 mmHg 92%
    01:00 +24°C° 0.1 mm 3 m/S 747 mmHg 93%
    02:00 +24°C° 0.1 mm 3 m/S 747 mmHg 93%
    03:00 +24°C° 0.1 mm 3 m/S 747 mmHg 94%
    04:00 +24°C° 0.1 mm 3 m/S 746 mmHg 94%
    05:00 +25°C° 0.4 mm 3 m/S 747 mmHg 94%
    06:00 +25°C° 0.4 mm 4 m/S 747 mmHg 93%
    07:00 +25°C° 0.4 mm 4 m/S 747 mmHg 93%
    08:00 +26°C° 0.2 mm 4 m/S 748 mmHg 86%
    09:00 +28°C° 0.2 mm 4 m/S 748 mmHg 79%
    10:00 +29°C° 0.2 mm 4 m/S 748 mmHg 73%
    11:00 +29°C° 0.4 mm 4 m/S 747 mmHg 75%
    12:00 +29°C° 0.4 mm 4 m/S 747 mmHg 78%
    13:00 +28°C° 0.4 mm 4 m/S 747 mmHg 80%
    14:00 +28°C° 0.5 mm 4 m/S 746 mmHg 82%
    15:00 +28°C° 0.5 mm 4 m/S 746 mmHg 83%
    16:00 +27°C° 0.5 mm 5 m/S 746 mmHg 84%
    17:00 +27°C° 0.2 mm 4 m/S 746 mmHg 86%
    18:00 +26°C° 0.2 mm 4 m/S 746 mmHg 87%
    19:00 +26°C° 0.2 mm 4 m/S 747 mmHg 88%
    20:00 +25°C° 0.2 mm 4 m/S 747 mmHg 89%
    21:00 +25°C° 0.2 mm 4 m/S 748 mmHg 90%
    22:00 +25°C° 0.2 mm 4 m/S 748 mmHg 91%
    23:00 +25°C° 0.2 mm 4 m/S 748 mmHg 91%

    übermorgen, 21 Januar, Montag

    Zeit Temperatur Niederschläge Wind Luftdruck Luftfeuchtigkeit
    00:00 +25°C° 0.2 mm 4 m/S 748 mmHg 91%
    01:00 +25°C° 0.2 mm 3 m/S 747 mmHg 91%
    02:00 +24°C° 0.3 mm 3 m/S 747 mmHg 92%
    03:00 +24°C° 0.3 mm 3 m/S 746 mmHg 93%
    04:00 +23°C° 0.3 mm 4 m/S 746 mmHg 94%
    05:00 +25°C° 0.3 mm 4 m/S 746 mmHg 93%
    06:00 +25°C° 0.3 mm 4 m/S 747 mmHg 93%
    07:00 +25°C° 0.3 mm 4 m/S 747 mmHg 93%
    08:00 +26°C° 0.3 mm 4 m/S 747 mmHg 87%
    09:00 +27°C° 0.3 mm 4 m/S 747 mmHg 82%
    10:00 +28°C° 0.3 mm 5 m/S 747 mmHg 77%
    11:00 +30°C° 0.1 mm 5 m/S 747 mmHg 70%
    12:00 +32°C° 0.1 mm 5 m/S 747 mmHg 64%
    13:00 +33°C° 0.1 mm 5 m/S 746 mmHg 58%
    14:00 +32°C° 0.1 mm 5 m/S 746 mmHg 59%
    15:00 +32°C° 0.1 mm 5 m/S 746 mmHg 61%
    16:00 +32°C° 0.1 mm 5 m/S 745 mmHg 63%
    17:00 +29°C° 0.1 mm 4 m/S 746 mmHg 69%
    18:00 +28°C° 0.1 mm 4 m/S 746 mmHg 76%
    19:00 +26°C° 0.1 mm 4 m/S 747 mmHg 82%
    20:00 +26°C° 0.2 mm 4 m/S 747 mmHg 84%
    21:00 +26°C° 0.2 mm 3 m/S 748 mmHg 87%
    22:00 +25°C° 0.2 mm 3 m/S 748 mmHg 89%
    23:00 +25°C° 0.3 mm 3 m/S 748 mmHg 91%

    22 Januar, Dienstag

    Zeit Temperatur Niederschläge Wind Luftdruck Luftfeuchtigkeit
    00:00 +25°C° 0.3 mm 3 m/S 748 mmHg 93%
    01:00 +25°C° 0.3 mm 3 m/S 747 mmHg 94%
    02:00 +25°C° 1 mm 3 m/S 747 mmHg 94%
    03:00 +25°C° 1 mm 3 m/S 746 mmHg 94%
    04:00 +25°C° 1 mm 4 m/S 746 mmHg 95%
    05:00 +25°C° 0.9 mm 4 m/S 746 mmHg 94%
    06:00 +25°C° 0.9 mm 4 m/S 747 mmHg 94%
    07:00 +25°C° 0.9 mm 4 m/S 747 mmHg 94%
    08:00 +26°C° 0.5 mm 4 m/S 747 mmHg 90%
    09:00 +27°C° 0.5 mm 4 m/S 747 mmHg 87%
    10:00 +28°C° 0.5 mm 4 m/S 747 mmHg 83%
    11:00 +29°C° 0.4 mm 4 m/S 747 mmHg 79%
    12:00 +30°C° 0.4 mm 4 m/S 746 mmHg 74%
    13:00 +30°C° 0.4 mm 4 m/S 746 mmHg 70%
    14:00 +30°C° 0.3 mm 4 m/S 745 mmHg 71%
    15:00 +30°C° 0.3 mm 4 m/S 745 mmHg 72%
    16:00 +29°C° 0.3 mm 4 m/S 745 mmHg 74%
    17:00 +28°C° 0.2 mm 4 m/S 745 mmHg 79%
    18:00 +27°C° 0.2 mm 4 m/S 746 mmHg 84%
    19:00 +26°C° 0.2 mm 3 m/S 746 mmHg 88%
    20:00 +26°C° 0.2 mm 3 m/S 747 mmHg 90%
    21:00 +25°C° 0.2 mm 3 m/S 747 mmHg 92%
    22:00 +25°C° 0.2 mm 3 m/S 748 mmHg 94%
    23:00 +25°C° 0.3 mm 3 m/S 747 mmHg 95%

    23 Januar, Mittwoch

    Zeit Temperatur Niederschläge Wind Luftdruck Luftfeuchtigkeit
    00:00 +25°C° 0.3 mm 3 m/S 747 mmHg 95%
    01:00 +25°C° 0.3 mm 3 m/S 746 mmHg 95%
    02:00 +25°C° 0.4 mm 3 m/S 746 mmHg 95%
    03:00 +25°C° 0.4 mm 3 m/S 745 mmHg 95%
    04:00 +25°C° 0.4 mm 3 m/S 745 mmHg 95%
    05:00 +25°C° 0.5 mm 3 m/S 745 mmHg 95%
    06:00 +26°C° 0.5 mm 3 m/S 746 mmHg 95%
    07:00 +26°C° 0.5 mm 3 m/S 746 mmHg 95%
    08:00 +26°C° 0.4 mm 3 m/S 746 mmHg 94%
    09:00 +27°C° 0.4 mm 3 m/S 746 mmHg 93%
    10:00 +27°C° 0.4 mm 3 m/S 746 mmHg 91%
    11:00 +28°C° 0.7 mm 3 m/S 746 mmHg 86%
    12:00 +29°C° 0.7 mm 3 m/S 745 mmHg 81%
    13:00 +30°C° 0.7 mm 3 m/S 745 mmHg 76%
    14:00 +30°C° 0.8 mm 3 m/S 744 mmHg 75%
    15:00 +30°C° 0.8 mm 3 m/S 744 mmHg 74%
    16:00 +30°C° 0.8 mm 3 m/S 744 mmHg 73%
    17:00 +29°C° 1.4 mm 3 m/S 744 mmHg 79%
    18:00 +28°C° 1.4 mm 3 m/S 744 mmHg 85%
    19:00 +26°C° 1.4 mm 3 m/S 745 mmHg 91%
    20:00 +26°C° 1.1 mm 2 m/S 745 mmHg 92%
    21:00 +26°C° 1.1 mm 2 m/S 745 mmHg 93%
    22:00 +26°C° 1.1 mm 2 m/S 746 mmHg 94%
    23:00 +26°C° 1.4 mm 2 m/S 745 mmHg 94%

    24 Januar, Donnerstag

    Zeit Temperatur Niederschläge Wind Luftdruck Luftfeuchtigkeit
    00:00 +26°C° 1.4 mm 2 m/S 745 mmHg 95%
    01:00 +26°C° 1.4 mm 2 m/S 744 mmHg 95%
    02:00 +26°C° 1.4 mm 2 m/S 744 mmHg 96%
    03:00 +26°C° 1.4 mm 2 m/S 744 mmHg 96%
    04:00 +26°C° 1.4 mm 2 m/S 744 mmHg 96%
    05:00 +26°C° 1.3 mm 2 m/S 744 mmHg 96%
    06:00 +26°C° 1.3 mm 2 m/S 745 mmHg 96%
    07:00 +26°C° 1.3 mm 2 m/S 745 mmHg 96%
    08:00 +26°C° 1.5 mm 2 m/S 745 mmHg 95%
    09:00 +26°C° 1.5 mm 2 m/S 745 mmHg 95%
    10:00 +27°C° 1.5 mm 2 m/S 745 mmHg 94%
    11:00 +27°C° 3.7 mm 2 m/S 745 mmHg 95%
    12:00 +26°C° 3.7 mm 2 m/S 745 mmHg 95%
    13:00 +26°C° 3.7 mm 2 m/S 744 mmHg 96%
    14:00 +26°C° 3.4 mm 2 m/S 744 mmHg 96%
    15:00 +26°C° 3.4 mm 2 m/S 744 mmHg 97%
    16:00 +26°C° 3.4 mm 2 m/S 744 mmHg 97%
    17:00 +26°C° 1.2 mm 2 m/S 744 mmHg 97%
    18:00 +26°C° 1.2 mm 2 m/S 744 mmHg 97%
    19:00 +26°C° 1.2 mm 2 m/S 744 mmHg 98%
    20:00 +26°C° 1.2 mm 2 m/S 745 mmHg 98%
    21:00 +26°C° 1.2 mm 2 m/S 745 mmHg 98%
    22:00 +26°C° 1.2 mm 2 m/S 746 mmHg 98%
    23:00 +26°C° 4.6 mm 2 m/S 746 mmHg 98%
    Mehr zeigen